Kezdőlap
METAR-TAF:

METAR-TAF

Repülőterek :

Omaha, Nebraska, Amerikai Egyesült Államok

földrajzi szélesség: 41-11-45N, földrajzi hosszúság: 096-06-44W, magasság: 320 m

Jelenlegi meteorológiai megfigyelések

A jelentés 26 perccel ezelõtt készült, 02:15 UTC
Dél-délnyugati szél 5 kt
Hőmérséklet 1°C
Páratartalom 34%
Légköri nyomás 1019 hPa
Látótávolság: 16.1 km
Derült ég

METAR: KMLE 270215Z AUTO 21005KT 10SM CLR 01/M13 A3008 RMK AO2 T00101135

Idő: 20:41 (02:41 UTC)


TAF: hiányzik

Meteorológiai megfigyelések és előrejelzések több, mint 4000 repülőtéren (METAR és TAF jelentéseket).

A térképen piros és sárga pontok jelzik az elérhető meteorológiai állomásokat.

Mozgassa az egeret a pont fölött, hogy megjelenjen az állomás neve.

Azután kattintson az időjárási megfigyelések és előrejelzések megtekintéséhez.

A térkép megváltoztatása: kattintson a fekete keresztel jelölt zöld gombra ráközelítéshez, a vonallal jelölt zöld gombra távolításhoz, vagy a zöld nyilakra a szomszédos térképek eléréséhez.


METAR-TAF: